| time (UTC) | temp C | wind direction | speed KPH | gust KPH | rain 1hr cm | rain 24hr cm | rain mn cm | humidity % | barometer mb |
| 20260509221521 | 11 | 0.0 | 0.0 | 0.00 | 0.38 | 0.38 | 96 | 1009.2 | |
| 20260509220518 | 11 | 197 | 1.6 | 3.2 | 0.00 | 0.38 | 0.38 | 96 | 1009.2 |
| 20260509215534 | 11 | 214 | 1.6 | 4.8 | 0.00 | 0.38 | 0.38 | 97 | 1009.4 |
| 20260509214529 | 11 | 204 | 1.6 | 9.7 | 0.00 | 0.38 | 0.38 | 97 | 1009.4 |
| 20260509213526 | 11 | 185 | 0.0 | 1.6 | 0.00 | 0.38 | 0.38 | 98 | 1009.5 |
| 20260509212522 | 11 | 207 | 0.0 | 1.6 | 0.00 | 0.38 | 0.38 | 99 | 1009.7 |
| 20260509211518 | 11 | 193 | 0.0 | 1.6 | 0.00 | 0.38 | 0.38 | 99 | 1009.8 |
| 20260509210557 | 11 | 199 | 0.0 | 3.2 | 0.00 | 0.38 | 0.38 | 99 | 1009.8 |
| 20260509205530 | 11 | 0.0 | 0.0 | 0.00 | 0.38 | 0.38 | 99 | 1009.9 | |
| 20260509204525 | 10 | 238 | 0.0 | 1.6 | 0.00 | 0.38 | 0.38 | 99 | 1010.0 |
| 20260509203542 | 10 | 69 | 0.0 | 1.6 | 0.00 | 0.38 | 0.38 | 99 | 1010.2 |
| 20260509202518 | 11 | 85 | 0.0 | 1.6 | 0.00 | 0.38 | 0.38 | 98 | 1010.2 |
| 20260509201534 | 11 | 0.0 | 0.0 | 0.03 | 0.38 | 0.38 | 98 | 1010.3 | |
| 20260509200529 | 10 | 0.0 | 0.0 | 0.03 | 0.38 | 0.38 | 98 | 1010.3 | |
| 20260509195525 | 10 | 0.0 | 0.0 | 0.03 | 0.38 | 0.38 | 98 | 1010.3 | |
| 20260509194522 | 10 | 0.0 | 0.0 | 0.03 | 0.38 | 0.38 | 99 | 1010.3 | |
| 20260509193537 | 10 | 0.0 | 0.0 | 0.03 | 0.38 | 0.38 | 99 | 1010.4 | |
| 20260509192533 | 10 | 0.0 | 0.0 | 0.03 | 0.38 | 0.38 | 99 | 1010.4 | |
| 20260509191529 | 10 | 0.0 | 0.0 | 0.00 | 0.36 | 0.36 | 99 | 1010.6 | |
| 20260509190525 | 10 | 82 | 0.0 | 3.2 | 0.00 | 0.36 | 0.36 | 98 | 1010.6 |
| 20260509185521 | 10 | 0.0 | 0.0 | 0.00 | 0.36 | 0.36 | 98 | 1010.7 | |
| 20260509184518 | 10 | 197 | 0.0 | 1.6 | 0.00 | 0.36 | 0.36 | 98 | 1010.7 |
| 20260509183534 | 10 | 246 | 0.0 | 3.2 | 0.00 | 0.36 | 0.36 | 98 | 1010.9 |
| 20260509182529 | 10 | 224 | 0.0 | 1.6 | 0.00 | 0.36 | 0.36 | 97 | 1010.9 |
| 20260509181525 | 10 | 172 | 0.0 | 1.6 | 0.03 | 0.36 | 0.36 | 97 | 1010.7 |
| 20260509180521 | 10 | 221 | 0.0 | 1.6 | 0.03 | 0.36 | 0.36 | 97 | 1010.8 |
| 20260509175517 | 10 | 138 | 1.6 | 3.2 | 0.03 | 0.36 | 0.36 | 96 | 1011.0 |
| 20260509174533 | 11 | 144 | 1.6 | 3.2 | 0.03 | 0.36 | 0.36 | 96 | 1011.0 |
| 20260509173528 | 11 | 156 | 1.6 | 3.2 | 0.05 | 0.36 | 0.36 | 96 | 1011.0 |
| 20260509172525 | 10 | 198 | 0.0 | 1.6 | 0.05 | 0.36 | 0.36 | 97 | 1011.2 |
| 20260509171541 | 10 | 166 | 0.0 | 1.6 | 0.05 | 0.33 | 0.33 | 97 | 1011.3 |
| 20260509170516 | 10 | 139 | 0.0 | 1.6 | 0.08 | 0.33 | 0.33 | 97 | 1011.4 |
| 20260509165533 | 10 | 166 | 0.0 | 1.6 | 0.10 | 0.33 | 0.33 | 97 | 1011.6 |
| 20260509164528 | 9 | 0.0 | 0.0 | 0.13 | 0.33 | 0.33 | 97 | 1011.6 | |
| 20260509163523 | 9 | 0.0 | 0.0 | 0.15 | 0.30 | 0.30 | 97 | 1011.9 | |
| 20260509162520 | 9 | 0.0 | 0.0 | 0.18 | 0.30 | 0.30 | 97 | 1011.9 | |
| 20260509161516 | 8 | 0.0 | 0.0 | 0.20 | 0.28 | 0.28 | 97 | 1012.0 | |
| 20260509160532 | 8 | 188 | 0.0 | 1.6 | 0.20 | 0.25 | 0.25 | 96 | 1012.2 |
| 20260509155547 | 8 | 45 | 1.6 | 3.2 | 0.20 | 0.23 | 0.23 | 95 | 1012.3 |
| 20260509154523 | 8 | 103 | 0.0 | 3.2 | 0.18 | 0.20 | 0.20 | 93 | 1012.5 |
| 20260509153520 | 8 | 146 | 0.0 | 1.6 | 0.13 | 0.15 | 0.15 | 91 | 1012.6 |
| 20260509152516 | 8 | 56 | 1.6 | 3.2 | 0.13 | 0.13 | 0.13 | 90 | 1012.7 |
| 20260509151532 | 8 | 0.0 | 0.0 | 0.08 | 0.08 | 0.08 | 87 | 1012.8 | |
| 20260509150527 | 8 | 68 | 1.6 | 3.2 | 0.05 | 0.05 | 0.05 | 88 | 1012.9 |
| 20260509145524 | 8 | 53 | 3.2 | 4.8 | 0.03 | 0.03 | 0.03 | 88 | 1012.9 |
| 20260509144519 | 8 | 21 | 3.2 | 6.4 | 0.03 | 0.03 | 0.03 | 87 | 1012.7 |
| 20260509143535 | 8 | 58 | 4.8 | 6.4 | 0.03 | 0.03 | 0.03 | 85 | 1012.9 |
| 20260509142531 | 8 | 0.0 | 0.0 | 0.00 | 0.00 | 0.00 | 80 | 1012.9 | |
| 20260509141526 | 8 | 0.0 | 0.0 | 0.00 | 0.00 | 0.00 | 80 | 1012.8 | |
| 20260509140523 | 8 | 259 | 1.6 | 3.2 | 0.00 | 0.00 | 0.00 | 75 | 1012.7 |
| 20260509135538 | 8 | 203 | 0.0 | 1.6 | 0.00 | 0.00 | 0.00 | 79 | 1012.6 |
| 20260509134535 | 8 | 198 | 1.6 | 3.2 | 0.00 | 0.00 | 0.00 | 76 | 1012.7 |
| 20260509133531 | 8 | 192 | 1.6 | 3.2 | 0.00 | 0.00 | 0.00 | 74 | 1012.6 |
| 20260509132526 | 8 | 236 | 1.6 | 3.2 | 0.00 | 0.00 | 0.00 | 71 | 1012.6 |
| 20260509131523 | 8 | 53 | 0.0 | 1.6 | 0.00 | 0.00 | 0.00 | 72 | 1012.6 |
| 20260509130538 | 7 | 60 | 3.2 | 4.8 | 0.00 | 0.00 | 0.00 | 73 | 1012.6 |
| 20260509125534 | 7 | 75 | 1.6 | 3.2 | 0.00 | 0.00 | 0.00 | 73 | 1012.7 |
| 20260509124529 | 7 | 49 | 1.6 | 3.2 | 0.00 | 0.00 | 0.00 | 78 | 1012.7 |
| 20260509123527 | 6 | 97 | 1.6 | 3.2 | 0.00 | 0.00 | 0.00 | 80 | 1012.9 |
| 20260509122521 | 6 | 158 | 0.0 | 1.6 | 0.00 | 0.00 | 0.00 | 82 | 1013.0 |
| 20260509121517 | 6 | 59 | 1.6 | 3.2 | 0.00 | 0.00 | 0.00 | 83 | 1013.1 |
| 20260509120533 | 5 | 0.0 | 0.0 | 0.00 | 0.00 | 0.00 | 85 | 1013.2 | |
| 20260509115609 | 5 | 0.0 | 0.0 | 0.00 | 0.00 | 0.00 | 92 | 1013.3 | |
| 20260509114525 | 4 | 247 | 0.0 | 1.6 | 0.00 | 0.00 | 0.00 | 96 | 1013.4 |
| 20260509113521 | 3 | 51 | 1.6 | 3.2 | 0.00 | 0.00 | 0.00 | 98 | 1013.2 |
| 20260509112518 | 3 | 78 | 0.0 | 1.6 | 0.00 | 0.00 | 0.00 | 99 | 1013.3 |
| 20260509111554 | 2 | 0.0 | 0.0 | 0.00 | 0.00 | 0.00 | 99 | 1013.4 | |
| 20260509110530 | 2 | 0.0 | 0.0 | 0.00 | 0.00 | 0.00 | 99 | 1013.5 | |
| 20260509105546 | 1 | 0.0 | 0.0 | 0.00 | 0.00 | 0.00 | 99 | 1013.5 | |
| 20260509104521 | 1 | 0.0 | 0.0 | 0.00 | 0.00 | 0.00 | 99 | 1013.6 | |
| 20260509103517 | 1 | 0.0 | 0.0 | 0.00 | 0.00 | 0.00 | 99 | 1013.4 | |
| 20260509102533 | 0 | 0.0 | 0.0 | 0.00 | 0.00 | 0.00 | 99 | 1013.4 | |
| 20260509101529 | 0 | 0.0 | 0.0 | 0.00 | 0.00 | 0.00 | 99 | 1013.2 | |
| 20260509100525 | 0 | 0.0 | 0.0 | 0.00 | 0.00 | 0.00 | 99 | 1013.1 | |
| 20260509095520 | 0 | 0.0 | 0.0 | 0.00 | 0.00 | 0.00 | 99 | 1013.3 | |
| 20260509094516 | 0 | 180 | 1.6 | 1.6 | 0.00 | 0.00 | 0.00 | 99 | 1013.1 |
| 20260509093532 | 0 | 199 | 3.2 | 3.2 | 0.00 | 0.00 | 0.00 | 99 | 1013.2 |
| 20260509092528 | 0 | 209 | 0.0 | 3.2 | 0.00 | 0.00 | 0.00 | 99 | 1013.3 |
| 20260509091524 | 0 | 0.0 | 0.0 | 0.00 | 0.00 | 0.00 | 99 | 1013.3 | |
| 20260509090520 | 0 | 0.0 | 0.0 | 0.00 | 0.00 | 0.00 | 99 | 1013.1 | |
| 20260509085516 | 0 | 0.0 | 0.0 | 0.00 | 0.00 | 0.00 | 99 | 1013.1 | |
| 20260509084532 | 0 | 197 | 3.2 | 3.2 | 0.00 | 0.00 | 0.00 | 99 | 1013.1 |
| 20260509083528 | -1 | 191 | 3.2 | 4.8 | 0.00 | 0.00 | 0.00 | 99 | 1013.0 |
| 20260509082524 | -1 | 0.0 | 0.0 | 0.00 | 0.00 | 0.00 | 99 | 1012.9 | |
| 20260509081520 | -1 | 0.0 | 0.0 | 0.00 | 0.00 | 0.00 | 99 | 1012.9 | |
| 20260509080517 | -1 | 0.0 | 0.0 | 0.00 | 0.00 | 0.00 | 99 | 1013.0 | |
| 20260509075531 | -1 | 0.0 | 0.0 | 0.00 | 0.00 | 0.00 | 99 | 1012.8 | |
| 20260509074528 | -1 | 0.0 | 0.0 | 0.00 | 0.00 | 0.00 | 99 | 1012.9 | |
| 20260509073523 | -1 | 0.0 | 0.0 | 0.00 | 0.00 | 0.00 | 99 | 1012.8 | |
| 20260509072540 | -1 | 0.0 | 0.0 | 0.00 | 0.00 | 0.00 | 99 | 1013.0 | |
| 20260509071516 | -1 | 0.0 | 0.0 | 0.00 | 0.00 | 0.00 | 99 | 1012.9 | |
| 20260509070532 | -1 | 0.0 | 0.0 | 0.00 | 0.00 | 0.00 | 99 | 1012.8 | |
| 20260509065527 | -1 | 0.0 | 0.0 | 0.00 | 0.00 | 0.00 | 99 | 1013.0 | |
| 20260509064604 | -1 | 0.0 | 0.0 | 0.00 | 0.00 | 0.00 | 99 | 1013.3 | |
| 20260509063520 | -1 | 0.0 | 0.0 | 0.00 | 0.00 | 0.00 | 99 | 1013.5 | |
| 20260509062515 | -1 | 0.0 | 0.0 | 0.00 | 0.00 | 0.00 | 99 | 1013.5 | |
| 20260509061532 | 0 | 0.0 | 0.0 | 0.00 | 0.00 | 0.00 | 99 | 1013.6 | |
| 20260509060528 | 0 | 0.0 | 0.0 | 0.00 | 0.00 | 0.00 | 99 | 1013.6 | |
| 20260509055524 | 0 | 0.0 | 0.0 | 0.00 | 0.00 | 0.00 | 99 | 1013.6 | |
| 20260509054520 | 0 | 0.0 | 0.0 | 0.00 | 0.00 | 0.00 | 99 | 1013.6 | |
| 20260509053556 | 0 | 0.0 | 0.0 | 0.00 | 0.00 | 0.00 | 99 | 1013.5 | |
| 20260509052532 | 0 | 215 | 0.0 | 1.6 | 0.00 | 0.00 | 0.00 | 99 | 1013.7 |
| 20260509051528 | 0 | 0.0 | 0.0 | 0.00 | 0.00 | 0.00 | 99 | 1013.5 | |
| 20260509050524 | 0 | 0.0 | 0.0 | 0.00 | 0.00 | 0.00 | 99 | 1013.5 | |
| 20260509045523 | 0 | 203 | 3.2 | 4.8 | 0.00 | 0.00 | 0.00 | 99 | 1013.4 |
| 20260509044519 | 0 | 213 | 4.8 | 4.8 | 0.00 | 0.00 | 0.00 | 99 | 1013.4 |
| 20260509043515 | 0 | 0.0 | 0.0 | 0.00 | 0.00 | 0.00 | 99 | 1013.3 | |
| 20260509042530 | 0 | 0.0 | 0.0 | 0.00 | 0.00 | 0.00 | 98 | 1013.3 | |
| 20260509041547 | 1 | 0.0 | 0.0 | 0.00 | 0.00 | 0.00 | 98 | 1013.2 | |
| 20260509040523 | 1 | 0.0 | 0.0 | 0.00 | 0.00 | 0.00 | 98 | 1013.1 | |
| 20260509035519 | 1 | 0.0 | 0.0 | 0.00 | 0.00 | 0.00 | 97 | 1013.1 | |
| 20260509034534 | 1 | 0.0 | 0.0 | 0.00 | 0.00 | 0.00 | 97 | 1013.0 | |
| 20260509033550 | 1 | 0.0 | 0.0 | 0.00 | 0.00 | 0.00 | 96 | 1013.1 | |
| 20260509032526 | 1 | 0.0 | 0.0 | 0.00 | 0.00 | 0.00 | 96 | 1013.1 | |
| 20260509031523 | 2 | 214 | 0.0 | 3.2 | 0.00 | 0.00 | 0.00 | 95 | 1013.2 |
| 20260509030518 | 2 | 0.0 | 0.0 | 0.00 | 0.00 | 0.00 | 95 | 1013.0 | |
| 20260509025534 | 2 | 0.0 | 0.0 | 0.00 | 0.00 | 0.00 | 94 | 1012.9 | |
| 20260509024530 | 2 | 0.0 | 0.0 | 0.00 | 0.00 | 0.00 | 93 | 1012.8 | |
| 20260509023547 | 2 | 0.0 | 0.0 | 0.00 | 0.00 | 0.00 | 92 | 1012.8 | |
| 20260509022522 | 3 | 202 | 0.0 | 1.6 | 0.00 | 0.00 | 0.00 | 92 | 1012.6 |
| 20260509021539 | 3 | 224 | 1.6 | 3.2 | 0.00 | 0.00 | 0.00 | 91 | 1012.6 |
| 20260509020535 | 3 | 217 | 1.6 | 3.2 | 0.00 | 0.00 | 0.00 | 90 | 1012.5 |
| 20260509015531 | 3 | 220 | 1.6 | 3.2 | 0.00 | 0.00 | 0.00 | 88 | 1012.3 |
| 20260509014527 | 4 | 0.0 | 0.0 | 0.00 | 0.00 | 0.00 | 87 | 1012.3 | |
| 20260509013523 | 4 | 0.0 | 0.0 | 0.00 | 0.00 | 0.00 | 86 | 1012.1 | |
| 20260509012518 | 5 | 0.0 | 0.0 | 0.00 | 0.00 | 0.00 | 85 | 1012.0 | |
| 20260509011614 | 5 | 0.0 | 0.0 | 0.00 | 0.00 | 0.00 | 82 | 1011.9 | |
| 20260509010550 | 5 | 0.0 | 0.0 | 0.00 | 0.00 | 0.00 | 79 | 1011.7 | |
| 20260509005526 | 6 | 0.0 | 0.0 | 0.00 | 0.00 | 0.00 | 79 | 1011.5 | |
| 20260509004522 | 6 | 0.0 | 0.0 | 0.00 | 0.00 | 0.00 | 77 | 1011.3 | |
| 20260509003518 | 6 | 0.0 | 0.0 | 0.00 | 0.00 | 0.00 | 76 | 1011.1 | |
| 20260509002614 | 7 | 0.0 | 0.0 | 0.00 | 0.00 | 0.00 | 72 | 1011.3 | |
| 20260509001530 | 8 | 256 | 3.2 | 3.2 | 0.00 | 0.00 | 0.00 | 67 | 1011.1 |
| 20260509000546 | 9 | 222 | 1.6 | 4.8 | 0.00 | 0.00 | 0.00 | 62 | 1011.1 |
| 20260508235521 | 10 | 234 | 1.6 | 4.8 | 0.00 | 0.00 | 0.00 | 61 | 1010.9 |
| 20260508234537 | 10 | 208 | 3.2 | 9.7 | 0.00 | 0.00 | 0.00 | 60 | 1011.0 |
| 20260508233533 | 10 | 204 | 3.2 | 6.4 | 0.00 | 0.00 | 0.00 | 61 | 1010.8 |
| 20260508232528 | 10 | 232 | 1.6 | 4.8 | 0.00 | 0.00 | 0.00 | 61 | 1010.7 |
| 20260508231544 | 10 | 224 | 4.8 | 9.7 | 0.00 | 0.00 | 0.00 | 60 | 1010.8 |
| 20260508230540 | 10 | 254 | 3.2 | 9.7 | 0.00 | 0.00 | 0.00 | 60 | 1010.7 |
| 20260508225536 | 10 | 245 | 6.4 | 11.3 | 0.00 | 0.00 | 0.00 | 60 | 1010.6 |
| 20260508224533 | 11 | 260 | 6.4 | 11.3 | 0.00 | 0.00 | 0.00 | 58 | 1010.4 |
| 20260508223527 | 11 | 238 | 4.8 | 17.7 | 0.00 | 0.00 | 0.00 | 60 | 1010.4 |
| 20260508222522 | 11 | 241 | 8.0 | 14.5 | 0.00 | 0.00 | 0.00 | 59 | 1010.2 |